This demonstration page uses our WeatherBlox Daily Observations layout. Learn more.

Left ArrowRight Arrow

53.62937, 11.41316

Hourly Observations for December 13, 2021

Temp ( °F °C ) Dew Point ( °F °C ) Humidity (%) Winds ( mph kmh ) Pressure ( in mb ) Visibility ( mi km ) Precip ( " mm )
12:20 am 00:20 Mostly Cloudy 46 8 46 8 100 100 WSW 6 9 30.15 1021 2 4 N/A
12:50 am 00:50 Mostly Cloudy 46 8 46 8 100 100 W 6 9 30.15 1021 3 5 N/A
1:20 am 01:20 Partly Cloudy 46 8 46 8 100 100 VRB 2 4 30.15 1021 1 1 N/A
1:50 am 01:50 Mostly Cloudy 46 8 46 8 100 100 VRB 2 4 30.18 1022 0 1 N/A
2:20 am 02:20 Cloudy 46 8 46 8 100 100 VRB 1 2 30.18 1022 0 0 N/A
2:50 am 02:50 Cloudy 46 8 46 8 100 100 VRB 1 2 30.18 1022 0 0 N/A
3:20 am 03:20 Cloudy 46 8 46 8 100 100 VRB 2 4 30.18 1022 0 1 N/A
3:50 am 03:50 Mostly Cloudy 46 8 46 8 100 100 S 3 6 30.18 1022 0 1 N/A
4:20 am 04:20 Partly Cloudy 46 8 46 8 100 100 VRB 2 4 30.18 1022 1 2 N/A
4:50 am 04:50 Mostly Clear 46 8 46 8 100 100 VRB 3 6 30.18 1022 2 3 N/A
5:20 am 05:20 Mostly Clear 46 8 46 8 100 100 S 5 7 30.18 1022 2 3 N/A
5:50 am 05:50 Mostly Clear 46 8 46 8 100 100 VRB 3 6 30.18 1022 4 6 N/A
6:20 am 06:20 Mostly Cloudy 46 8 46 8 100 100 VRB 3 6 30.21 1023 3 5 N/A
6:50 am 06:50 Mostly Cloudy 46 8 46 8 100 100 VRB 2 4 30.21 1023 3 5 N/A
7:20 am 07:20 Mostly Cloudy with Mist and Fog 48 9 46 8 94 94 VRB 3 6 30.21 1023 3 4 N/A
7:50 am 07:50 Mostly Clear with Drizzle 48 9 46 8 94 94 SW 3 6 30.21 1023 2 3 N/A
8:20 am 08:20 Mostly Cloudy with Light Rain 48 9 48 9 100 100 SW 3 6 30.21 1023 3 4 N/A
8:50 am 08:50 Mostly Cloudy with Mist and Fog 48 9 48 9 100 100 SW 3 6 30.24 1024 3 5 N/A
9:20 am 09:20 Mostly Cloudy with Mist and Fog 48 9 48 9 100 100 SW 3 6 30.24 1024 1 2 N/A
9:50 am 09:50 Mostly Cloudy with Mist and Fog 50 10 48 9 94 94 SW 3 6 30.24 1024 2 4 N/A
10:20 am 10:20 Mostly Cloudy 50 10 48 9 94 94 SW 5 7 30.24 1024 5 8 N/A
10:50 am 10:50 Mostly Cloudy 50 10 48 9 94 94 WSW 5 7 30.24 1024 30 48 N/A
11:20 am 11:20 Mostly Cloudy 50 10 48 9 94 94 WSW 5 7 30.27 1025 30 48 N/A
11:50 am 11:50 Mostly Cloudy 50 10 48 9 94 94 WSW 5 7 30.24 1024 30 48 N/A
12:20 pm 12:20 Mostly Cloudy 52 11 50 10 94 94 SW 3 6 30.27 1025 30 48 N/A
1:20 pm 13:20 Mostly Cloudy 52 11 48 9 88 88 SW 5 7 30.24 1024 30 48 N/A
1:50 pm 13:50 Mostly Cloudy 52 11 48 9 88 88 SW 5 7 30.24 1024 30 48 N/A
2:20 pm 14:20 Mostly Cloudy 50 10 48 9 94 94 VRB 3 6 30.24 1024 30 48 N/A
3:20 pm 15:20 Cloudy 50 10 48 9 94 94 SW 5 7 30.24 1024 30 48 N/A
3:50 pm 15:50 Cloudy 50 10 46 8 88 88 SW 5 7 30.24 1024 30 48 N/A
4:20 pm 16:20 Cloudy 50 10 46 8 88 88 VRB 3 6 30.27 1025 30 48 N/A
4:50 pm 16:50 Mostly Cloudy 48 9 46 8 94 94 SW 3 6 30.27 1025 30 48 N/A
5:20 pm 17:20 Cloudy 48 9 46 8 94 94 VRB 3 6 30.27 1025 30 48 N/A
5:50 pm 17:50 Cloudy 48 9 46 8 94 94 VRB 3 6 30.27 1025 30 48 N/A
6:20 pm 18:20 Cloudy 48 9 46 8 94 94 VRB 5 7 30.27 1025 30 48 N/A
6:50 pm 18:50 Cloudy 48 9 46 8 94 94 VRB 5 7 30.27 1025 30 48 N/A
7:20 pm 19:20 Cloudy 48 9 46 8 94 94 SW 3 6 30.27 1025 30 48 N/A
7:50 pm 19:50 Cloudy 48 9 46 8 94 94 VRB 3 6 30.27 1025 30 48 N/A
8:20 pm 20:20 Cloudy 48 9 46 8 94 94 VRB 3 6 30.27 1025 6 9 N/A
8:50 pm 20:50 Mostly Cloudy 48 9 46 8 94 94 SSW 3 6 30.27 1025 5 8 N/A
9:20 pm 21:20 Mostly Cloudy 48 9 46 8 94 94 SSW 5 7 30.27 1025 6 9 N/A
9:50 pm 21:50 Cloudy 48 9 45 7 87 87 SW 5 7 30.27 1025 30 48 N/A
10:20 pm 22:20 Cloudy 48 9 45 7 87 87 VRB 3 6 30.27 1025 30 48 N/A
10:50 pm 22:50 Mostly Cloudy 48 9 45 7 87 87 VRB 3 6 30.27 1025 6 9 N/A
11:20 pm 23:20 Mostly Cloudy 46 8 45 7 93 93 S 3 6 30.24 1024 6 9 N/A
11:50 pm 23:50 Mostly Cloudy 46 8 45 7 93 93 SSW 3 6 30.24 1024 5 8 N/A

Powered by AerisWeather